When you browse on this site, cookies collect data to enhance your experience and personalize the content and advertising you see.
Visit our Privacy Policy to learn more. By continuing to use the site, you agree to this use of cookies and data.
  • In Latvia
  • List of Countries
  • For 7 days
  • Water Temperature
  • Weather Map
  • Weather Widgets
  • user-avatar
    Login

    Hourly Weather Laszkar Gah

    Today, 6 June, Saturday

    Time Temperature Precipitation Wind Pressure Humidity
    00:00 +38°C° 0 mm 11 mps 688 mmHg 9%
    01:00 +37°C° 0 mm 11 mps 688 mmHg 10%
    02:00 +36°C° 0 mm 10 mps 688 mmHg 10%
    03:00 +34°C° 0 mm 8 mps 688 mmHg 11%
    04:00 +33°C° 0 mm 7 mps 688 mmHg 12%
    05:00 +34°C° 0 mm 7 mps 689 mmHg 12%
    06:00 +37°C° 0 mm 8 mps 689 mmHg 11%
    07:00 +38°C° 0 mm 9 mps 690 mmHg 10%
    08:00 +40°C° 0 mm 9 mps 690 mmHg 9%
    09:00 +42°C° 0 mm 9 mps 690 mmHg 8%
    10:00 +44°C° 0 mm 9 mps 690 mmHg 7%
    11:00 +44°C° 0 mm 8 mps 689 mmHg 6%
    12:00 +45°C° 0 mm 7 mps 689 mmHg 6%
    13:00 +46°C° 0 mm 6 mps 689 mmHg 5%
    14:00 +46°C° 0 mm 5 mps 688 mmHg 5%
    15:00 +47°C° 0 mm 5 mps 687 mmHg 4%
    16:00 +47°C° 0 mm 4 mps 687 mmHg 4%
    17:00 +44°C° 0 mm 4 mps 686 mmHg 5%
    18:00 +42°C° 0 mm 4 mps 686 mmHg 5%
    19:00 +40°C° 0 mm 4 mps 686 mmHg 6%
    20:00 +39°C° 0 mm 6 mps 686 mmHg 6%
    21:00 +38°C° 0 mm 8 mps 686 mmHg 6%
    22:00 +37°C° 0 mm 10 mps 686 mmHg 6%
    23:00 +35°C° 0 mm 9 mps 686 mmHg 7%

    Tomorrow, 7 June, Sunday

    Time Temperature Precipitation Wind Pressure Humidity
    00:00 +34°C° 0 mm 9 mps 686 mmHg 7%
    01:00 +33°C° 0 mm 8 mps 686 mmHg 7%
    02:00 +33°C° 0 mm 8 mps 686 mmHg 8%
    03:00 +32°C° 0 mm 8 mps 686 mmHg 8%
    04:00 +32°C° 0 mm 8 mps 686 mmHg 8%
    05:00 +33°C° 0 mm 9 mps 686 mmHg 8%
    06:00 +34°C° 0 mm 9 mps 687 mmHg 7%
    07:00 +37°C° 0 mm 10 mps 688 mmHg 7%
    08:00 +39°C° 0 mm 8 mps 688 mmHg 6%
    09:00 +41°C° 0 mm 7 mps 688 mmHg 6%
    10:00 +44°C° 0 mm 6 mps 689 mmHg 5%
    11:00 +43°C° 0 mm 5 mps 688 mmHg 5%
    12:00 +44°C° 0 mm 4 mps 688 mmHg 4%
    13:00 +45°C° 0 mm 3 mps 687 mmHg 4%
    14:00 +45°C° 0 mm 3 mps 687 mmHg 3%
    15:00 +45°C° 0 mm 3 mps 686 mmHg 3%
    16:00 +45°C° 0 mm 3 mps 686 mmHg 2%
    17:00 +42°C° 0 mm 2 mps 686 mmHg 3%
    18:00 +39°C° 0 mm 2 mps 685 mmHg 3%
    19:00 +36°C° 0 mm 2 mps 685 mmHg 4%
    20:00 +35°C° 0 mm 2 mps 685 mmHg 4%
    21:00 +35°C° 0 mm 3 mps 685 mmHg 5%
    22:00 +34°C° 0 mm 3 mps 685 mmHg 5%
    23:00 +33°C° 0 mm 3 mps 685 mmHg 5%

    Day after tomorrow, 8 June, Monday

    Time Temperature Precipitation Wind Pressure Humidity
    00:00 +31°C° 0 mm 3 mps 685 mmHg 6%
    01:00 +30°C° 0 mm 3 mps 685 mmHg 6%
    02:00 +29°C° 0 mm 2 mps 685 mmHg 8%
    03:00 +28°C° 0 mm 2 mps 684 mmHg 9%
    04:00 +27°C° 0 mm 1 mps 684 mmHg 11%
    05:00 +29°C° 0 mm 2 mps 685 mmHg 9%
    06:00 +32°C° 0 mm 2 mps 686 mmHg 8%
    07:00 +35°C° 0 mm 3 mps 687 mmHg 7%
    08:00 +37°C° 0 mm 4 mps 688 mmHg 7%
    09:00 +40°C° 0 mm 4 mps 688 mmHg 6%
    10:00 +41°C° 0 mm 5 mps 688 mmHg 6%
    11:00 +43°C° 0 mm 5 mps 688 mmHg 6%
    12:00 +45°C° 0 mm 5 mps 688 mmHg 5%
    13:00 +46°C° 0 mm 5 mps 688 mmHg 4%
    14:00 +47°C° 0 mm 6 mps 688 mmHg 5%
    15:00 +47°C° 0 mm 7 mps 687 mmHg 5%
    16:00 +48°C° 0 mm 9 mps 687 mmHg 5%
    17:00 +46°C° 0 mm 8 mps 687 mmHg 6%
    18:00 +44°C° 0 mm 8 mps 687 mmHg 8%
    19:00 +41°C° 0 mm 7 mps 687 mmHg 9%
    20:00 +39°C° 0 mm 7 mps 687 mmHg 11%
    21:00 +38°C° 0 mm 6 mps 687 mmHg 12%
    22:00 +35°C° 0 mm 5 mps 687 mmHg 14%
    23:00 +34°C° 0 mm 5 mps 687 mmHg 14%

    9 June, Tuesday

    Time Temperature Precipitation Wind Pressure Humidity
    00:00 +34°C° 0 mm 5 mps 687 mmHg 15%
    01:00 +33°C° 0 mm 5 mps 687 mmHg 15%
    02:00 +30°C° 0 mm 4 mps 686 mmHg 18%
    03:00 +29°C° 0 mm 3 mps 686 mmHg 21%
    04:00 +27°C° 0 mm 3 mps 686 mmHg 24%
    05:00 +28°C° 0 mm 4 mps 687 mmHg 24%
    06:00 +29°C° 0 mm 4 mps 688 mmHg 24%
    07:00 +30°C° 0 mm 5 mps 688 mmHg 24%
    08:00 +33°C° 0 mm 5 mps 689 mmHg 20%
    09:00 +36°C° 0 mm 4 mps 689 mmHg 16%
    10:00 +38°C° 0 mm 4 mps 690 mmHg 12%
    11:00 +41°C° 0 mm 5 mps 689 mmHg 10%
    12:00 +44°C° 0 mm 6 mps 689 mmHg 7%
    13:00 +46°C° 0 mm 7 mps 689 mmHg 5%
    14:00 +46°C° 0 mm 7 mps 688 mmHg 4%
    15:00 +46°C° 0 mm 8 mps 688 mmHg 4%
    16:00 +47°C° 0 mm 9 mps 687 mmHg 3%
    17:00 +44°C° 0 mm 8 mps 687 mmHg 4%
    18:00 +41°C° 0 mm 7 mps 687 mmHg 4%
    19:00 +39°C° 0 mm 6 mps 687 mmHg 5%
    20:00 +36°C° 0 mm 5 mps 687 mmHg 7%
    21:00 +34°C° 0 mm 5 mps 687 mmHg 9%
    22:00 +33°C° 0 mm 5 mps 687 mmHg 11%
    23:00 +32°C° 0 mm 4 mps 686 mmHg 13%

    10 June, Wednesday

    Time Temperature Precipitation Wind Pressure Humidity
    00:00 +29°C° 0 mm 3 mps 686 mmHg 14%
    01:00 +28°C° 0 mm 3 mps 686 mmHg 16%
    02:00 +27°C° 0 mm 3 mps 686 mmHg 16%
    03:00 +26°C° 0 mm 3 mps 686 mmHg 17%
    04:00 +26°C° 0 mm 3 mps 686 mmHg 17%
    05:00 +27°C° 0 mm 3 mps 687 mmHg 16%
    06:00 +28°C° 0 mm 3 mps 687 mmHg 14%
    07:00 +30°C° 0 mm 3 mps 688 mmHg 13%
    08:00 +32°C° 0 mm 2 mps 689 mmHg 11%
    09:00 +36°C° 0 mm 2 mps 689 mmHg 9%
    10:00 +39°C° 0 mm 2 mps 689 mmHg 7%
    11:00 +40°C° 0 mm 2 mps 689 mmHg 6%
    12:00 +41°C° 0 mm 2 mps 689 mmHg 5%
    13:00 +44°C° 0 mm 3 mps 688 mmHg 4%
    14:00 +44°C° 0 mm 3 mps 688 mmHg 4%
    15:00 +44°C° 0 mm 4 mps 687 mmHg 3%
    16:00 +46°C° 0 mm 5 mps 687 mmHg 3%
    17:00 +42°C° 0 mm 4 mps 687 mmHg 3%
    18:00 +40°C° 0 mm 4 mps 686 mmHg 4%
    19:00 +37°C° 0 mm 4 mps 686 mmHg 4%
    20:00 +35°C° 0 mm 4 mps 686 mmHg 5%
    21:00 +34°C° 0 mm 4 mps 686 mmHg 6%
    22:00 +32°C° 0 mm 4 mps 686 mmHg 6%
    23:00 +30°C° 0 mm 3 mps 686 mmHg 7%

    11 June, Thursday

    Time Temperature Precipitation Wind Pressure Humidity
    00:00 +28°C° 0 mm 3 mps 685 mmHg 8%
    01:00 +27°C° 0 mm 3 mps 685 mmHg 9%
    02:00 +26°C° 0 mm 3 mps 685 mmHg 11%
    03:00 +25°C° 0 mm 4 mps 685 mmHg 12%
    04:00 +22°C° 0 mm 4 mps 685 mmHg 14%
    05:00 +23°C° 0 mm 4 mps 685 mmHg 14%
    06:00 +25°C° 0 mm 4 mps 686 mmHg 14%
    07:00 +26°C° 0 mm 4 mps 687 mmHg 14%
    08:00 +29°C° 0 mm 4 mps 687 mmHg 12%
    09:00 +31°C° 0 mm 3 mps 687 mmHg 10%
    10:00 +35°C° 0 mm 3 mps 688 mmHg 8%
    11:00 +37°C° 0 mm 3 mps 687 mmHg 7%
    12:00 +39°C° 0 mm 3 mps 687 mmHg 6%
    13:00 +42°C° 0 mm 3 mps 687 mmHg 4%
    14:00 +41°C° 0 mm 2 mps 687 mmHg 4%
    15:00 +42°C° 0 mm 2 mps 686 mmHg 4%
    16:00 +42°C° 0 mm 1 mps 686 mmHg 3%
    17:00 +39°C° 0 mm 1 mps 685 mmHg 4%
    18:00 +35°C° 0 mm 1 mps 685 mmHg 5%
    19:00 +32°C° 0 mm 1 mps 684 mmHg 6%
    20:00 +32°C° 0 mm 1 mps 685 mmHg 6%
    21:00 +31°C° 0 mm 2 mps 685 mmHg 6%
    22:00 +30°C° 0 mm 2 mps 685 mmHg 7%
    23:00 +29°C° 0 mm 2 mps 685 mmHg 8%
    Show more